Погода в железнодорожной станции Абросово

Россия / Новгородская область     58°42′47″N   35°26′00″E
темп.,
°C
ветер,
м/с
пор.,
м/с
влажн.,
%
обл.,
%
осадки,
мм/ч
давл.,
гПа
погр.,
м
10 апреля, сб
сб1000:00+2ю61677100 0.0 1017750
03:00+2ю61679100 0.0 1017750
06:00+2ю61582100 0.0 1017667
09:00+4ю61479100 0.0 1018884
12:00+7ююз61570100 0.0 10171637
15:00+8ююз71363100 0.0 10161897
18:00+8ююз61462100 0.0 10161525
21:00+7ююз613695 0.0 10161011
11 апреля, вс
вс1100:00+3зсз31097100 2.4 1019643
03:00+2юз2696100 2.6 1022254
06:000юз259699 0.0 1024123
09:00+4зюз237570 0.0 1026513
12:00+7юз23565 0.0 10271289
15:00+9юз2449100 0.0 10281494
18:00+7ю3576100 0.0 1029395
21:00+4ююв239233 0.0 103060
12 апреля, пн
пн1200:00+4ююв2491100 0.0 1031117
03:00+4юв2296100 0.0 103128
06:00+5вюв2495100 0.1 1031109
09:00+8ююв358019 0.1 1031283
12:00+14ю36615 0.0 1030773
15:00+15ююв45545 0.0 10291199
18:00+14ююв37625 0.0 1028439
21:00+9юв31178100 0.0 1027288
13 апреля, вт
вт1300:00+8ююв31177100 0.0 1026371
03:00+7ююв31193100 1.1 1025453
06:00+7ююв31094100 0.9 1024354
09:00+8ююв3894100 1.9 1023284
12:00+8ю2797100 0.7 1023249
15:00+9ю2597100 0.8 1022178
18:00+9ю2497100 0.0 1022125
21:00+8юз1196100 0.0 102210
14 апреля, ср
ср1400:00+8вюв1196100 0.0 102212
03:00+7вюв2396100 0.0 102145
06:00+7юв2496100 0.0 102070
09:00+9юв3993100 0.0 1020221
12:00+16ююв486567 0.0 1018708
15:00+17ю5105691 0.3 10171674
18:00+14ю3870100 0.8 1016268
21:00+12ююв2283100 0.9 101617